Starlink 35938

operational
NORAD ID: 66644 Int'l Des: 2025-271 Owner: SPXS Country: US Constellation: starlink
LEOCIRCULAR

Starlink 35938について

説明を読み込み中...

リアルタイム位置

3D地球を読み込み中...

次回通過

高度履歴

Altitude vs Time

uPlot chart will show altitude changes over time

軌道要素

1 66644U 25271AD 26072.55242849 .00030945 00000-0 10526-2 0 9996
2 66644 53.1588 122.3009 0001114 80.5141 279.5985 15.30197840 18159
Epoch: Mar 13, 2026 • Age: 33 hours

現在のステータス

高度 492.7 km
速度 7.62 km/s
衛星直下点 -49.04°S, 48.22°E
打ち上げ日 Nov 23, 2025
運用期間 0.3 years
タイプ internet

技術仕様

分類 Payload
質量 575.00 kg
乾燥質量 530.00 kg
総質量 575.00 kg
長さ 0.30 m
直径 4.10 m
スパン 29.00 m
形状 Box + pan
製造者 SPXS
バスタイプ Starlink V2MO
フェーズステータス In Orbit
所有者/国 SPXS/US

大規模コンステレーション

Loading constellations...